STARLINK-5750, 55594

Orbit data source: Space-Track

STARLINK-5750, 55594 is a payload satellite owned by SpaceX/Seattle (US) in LEO that was launched on Sun, 12 Feb 2023 UTC via an FALCON 9 launch vehicle from the Air Force Eastern Test Range (AFETR). Payload-class satellites include a variety of spacecraft equipped with specific instruments for various scientific and technological missions. These include communications satellites like Starlink; space stations such as the ISS; scientific satellites like the Hubble; Earth observation satellites from companies like Planet Labs, Umbra, and HawkEye 360; GPS; miniature CubeSats for education and research; and military/defense satellites.

Loading next visibility...
Identifier
55594, 2023-020AB
Orbit
LEO
Country
Flag of USUS
Related business
Manufacturer
SpaceX/Seattle
Mission
Operational Commercial Communications
Bus & Motor
STARLINK, Unknown motor
Mass
305 kg wet, ~290 kg dry
Launch date (UTC)
2023-02-12 (4 years ago)
Launch vehicle
FALCON 9
Launch site
Air Force Eastern Test Range (AFETR)
Object type
Payload
Rocket body
Debris
Shape & HBR
Box + 1 Pan, 10.1 m
Radar Cross Section
13.562 m², Large (>1 m²)

Expand to show TLE details & history
Last TLE update: 5 hours ago

TLE from 5 hours ago
0 STARLINK-5750
1 55594U 23020AB  26264.24639663 -.00000586  00000-0 -11787-4 0  9993
2 55594  43.0043 340.5479 0001390 270.4232  89.6461 15.27576719198821
Epoch: 2026-09-21T05:54Z
TLE epoch observation values (Epoch: 2026-09-21T05:54:48.668Z)
Latitude
0.00001°
Longitude
-108.28386°
Altitude
482.829 km
Speed
7.626 km/s
True Right ascension
22h 42m 11s
True Declination
0° 00' 00"
Sunlit
Object was in full shadow at epoch
Visualization orbit readout
Latitude
Unknown
Longitude
Unknown
Altitude
Unknown
Speed
Unknown
Apparent Right ascension
Unknown
Apparent Declination
Unknown
Sunlit
N/A
Visualization observer readout
Local Sidereal Time
04:02:59
Azimuth
Unknown
Elevation
Unknown
Doppler factor
Unknown
Orbital elements
Apogee altitude
485.957 km
Perigee altitude
484.049 km
Semi-major axis
6,863.14 km
Eccentricity
0.00014
Inclination
43.0043°
RAAN
340.5479°
Arg. of periapsis
270.4232°
True anomaly
89.66203°
Mean anomaly
89.6461°
Eccentric anomaly
89.65406°
Mean motion
3.81732 °/min
Orbital period
94.31 mins
BSTAR
-0.000011787
Loading maneuver chart data...
Computing Atmospheric mass density...
Loading historical data...
Loading historical data...
Loading historical data...
Loading historical data...
Loading historical data...
Loading historical data...
Loading historical data...

Documentation

Showing up to 5 results
|